EW7146 Weather Reports


time (UTC)temp
C
wind
direction
speed
KPH
gust
KPH
rain 1hr
cm
rain 24hr
cm
rain mn
cm
humidity
%
barometer
mb
20260906031215 14 235 0.0 3.2 0.00 0.00 0.00 62 1030.7
20260906030716 14 235 1.6 3.2 0.00 0.00 0.00 62 1030.7
20260906030442 14 244 0.0 3.2 0.00 0.00 0.00 62 1030.6
20260906025714 14 220 0.0 4.8 0.00 0.00 0.00 62 1030.6
20260906025216 14 171 1.6 4.8 0.00 0.00 0.00 61 1030.6
20260906024711 15 206 1.6 4.8 0.00 0.00 0.00 61 1030.6
20260906024210 15 165 1.6 4.8 0.00 0.00 0.00 60 1030.6
20260906023714 15 140 1.6 4.8 0.00 0.00 0.00 60 1030.6
20260906023216 15 49 0.0 4.8 0.00 0.00 0.00 59 1030.6
20260906022714 15 39 1.6 4.8 0.00 0.00 0.00 59 1030.6
20260906022216 15 73 0.0 6.4 0.00 0.00 0.00 58 1030.7
20260906022200 15 23 0.0 11.3 0.00 0.00 0.00 58 1030.4
20260906021214 15 69 4.8 11.3 0.00 0.00 0.00 57 1030.3
20260906020709 15 52 6.4 9.7 0.00 0.00 0.00 55 1030.3
20260906020209 16 41 8.0 11.3 0.00 0.00 0.00 53 1030.2
20260906015711 16 45 4.8 16.1 0.00 0.00 0.00 53 1030.2
20260906015435 16 92 6.4 19.3 0.00 0.00 0.00 52 1030.1
20260906014715 16 73 8.0 24.1 0.00 0.00 0.00 50 1030.1
20260906014218 17 27 8.0 24.1 0.00 0.00 0.00 47 1030.2
20260906013718 18 31 4.8 14.5 0.00 0.00 0.00 41 1030.2
20260906013213 18 20 6.4 9.7 0.00 0.00 0.00 40 1029.7
20260906012713 18 4 3.2 11.3 0.00 0.00 0.00 41 1029.7
20260906012214 18 37 6.4 11.3 0.00 0.00 0.00 40 1029.6
20260906011712 18 338 4.8 9.7 0.00 0.00 0.00 39 1029.5
20260906011210 18 331 4.8 9.7 0.00 0.00 0.00 40 1029.5
20260906010712 18 353 4.8 9.7 0.00 0.00 0.00 39 1029.4
20260906010213 18 353 6.4 14.5 0.00 0.00 0.00 39 1029.5
20260906005712 19 334 8.0 16.1 0.00 0.00 0.00 38 1029.4
20260906005212 19 14 11.3 16.1 0.00 0.00 0.00 37 1029.4
20260906004717 19 41 4.8 16.1 0.00 0.00 0.00 39 1029.4
20260906004212 20 28 4.8 14.5 0.00 0.00 0.00 39 1029.3
20260906003712 20 347 3.2 14.5 0.00 0.00 0.00 41 1029.2
20260906003208 19 30 6.4 14.5 0.00 0.00 0.00 40 1029.3
20260906002709 19 49 4.8 14.5 0.00 0.00 0.00 39 1029.2
20260906002432 19 341 8.0 9.7 0.00 0.00 0.00 40 1029.2
20260906001712 19 56 3.2 11.3 0.00 0.00 0.00 39 1029.1
20260906001437 20 31 4.8 11.3 0.00 0.00 0.00 39 1029.2
20260906000711 19 35 6.4 11.3 0.00 0.00 0.00 39 1029.1
20260906000212 19 41 4.8 11.3 0.00 0.00 0.00 40 1029.3
20260905235715 19 330 6.4 16.1 0.00 0.00 0.00 40 1029.3
20260905235211 19 16 3.2 16.1 0.00 0.00 0.00 40 1029.3
20260905234710 19 343 4.8 17.7 0.00 0.00 0.00 39 1029.3
20260905234208 19 343 11.3 17.7 0.00 0.00 0.00 38 1029.3
20260905233710 19 39 9.7 17.7 0.00 0.00 0.00 37 1029.2
20260905233211 20 333 8.0 16.1 0.00 0.00 0.00 37 1029.2
20260905232711 20 63 4.8 19.3 0.00 0.00 0.00 38 1029.2
20260905232210 20 37 9.7 19.3 0.00 0.00 0.00 37 1029.1
20260905231709 20 44 6.4 17.7 0.00 0.00 0.00 38 1029.1
20260905231434 20 28 9.7 17.7 0.00 0.00 0.00 37 1029.2
20260905230923 20 193 3.2 14.5 0.00 0.00 0.00 36 1029.1
20260905230651 19 38 8.0 14.5 0.00 0.00 0.00 39 1029.3
20260905225710 18 37 8.0 14.5 0.00 0.00 0.00 39 1029.3
20260905225209 18 350 9.7 17.7 0.00 0.00 0.00 38 1029.2
20260905224709 18 30 9.7 17.7 0.00 0.00 0.00 37 1029.2
20260905224210 18 307 6.4 14.5 0.00 0.00 0.00 38 1029.3
20260905223709 18 343 4.8 14.5 0.00 0.00 0.00 38 1029.3
20260905223212 18 343 8.0 11.3 0.00 0.00 0.00 38 1029.3
20260905222709 18 334 4.8 11.3 0.00 0.00 0.00 38 1029.3
20260905222437 18 357 4.8 14.5 0.00 0.00 0.00 40 1029.4
20260905221708 18 334 4.8 14.5 0.00 0.00 0.00 39 1029.3
20260905221209 18 347 6.4 14.5 0.00 0.00 0.00 38 1029.3
20260905220708 19 11 8.0 11.3 0.00 0.00 0.00 38 1029.4
20260905220208 19 350 6.4 9.7 0.00 0.00 0.00 37 1029.4
20260905215708 20 8 3.2 6.4 0.00 0.00 0.00 37 1029.3
20260905215207 20 76 1.6 8.0 0.00 0.00 0.00 36 1029.3
20260905214708 20 28 4.8 11.3 0.00 0.00 0.00 37 1029.4
20260905214652 20 1 4.8 11.3 0.00 0.00 0.00 38 1029.3
20260905213706 20 28 6.4 16.1 0.00 0.00 0.00 37 1029.3
20260905213204 19 39 9.7 16.1 0.00 0.00 0.00 38 1029.3
20260905212709 19 39 8.0 14.5 0.00 0.00 0.00 39 1029.4
20260905212207 19 47 6.4 16.1 0.00 0.00 0.00 39 1029.4
20260905211707 19 52 6.4 19.3 0.00 0.00 0.00 39 1029.3
20260905211207 19 61 9.7 19.3 0.00 0.00 0.00 40 1029.5
20260905210940 19 71 9.7 19.3 0.00 0.00 0.00 38 1029.4
20260905210207 20 52 9.7 19.3 0.00 0.00 0.00 39 1029.4
20260905205707 20 65 6.4 19.3 0.00 0.00 0.00 40 1029.4
20260905205207 20 124 8.0 19.3 0.00 0.00 0.00 42 1029.3
20260905204707 20 118 6.4 19.3 0.00 0.00 0.00 42 1029.3
20260905204213 20 134 12.9 24.1 0.00 0.00 0.00 41 1029.3
20260905203708 20 117 9.7 24.1 0.00 0.00 0.00 40 1029.3
20260905203206 21 100 9.7 24.1 0.00 0.00 0.00 40 1029.2
20260905202706 20 58 14.5 24.1 0.00 0.00 0.00 39 1029.2
20260905202206 20 103 8.0 16.1 0.00 0.00 0.00 38 1029.1
20260905201707 20 137 6.4 16.1 0.00 0.00 0.00 36 1029.2
20260905201206 20 124 4.8 16.1 0.00 0.00 0.00 36 1029.1
20260905200706 20 94 9.7 16.1 0.00 0.00 0.00 36 1029.1
20260905200205 20 104 4.8 14.5 0.00 0.00 0.00 36 1029.2
20260905195705 20 121 6.4 14.5 0.00 0.00 0.00 39 1029.1
20260905195205 20 109 8.0 17.7 0.00 0.00 0.00 38 1029.1
20260905194705 20 148 9.7 17.7 0.00 0.00 0.00 38 1029.2
20260905194205 20 85 6.4 14.5 0.00 0.00 0.00 39 1029.1
20260905193705 20 96 6.4 14.5 0.00 0.00 0.00 38 1029.2
20260905193205 20 94 6.4 14.5 0.00 0.00 0.00 38 1029.3
20260905192705 20 93 6.4 16.1 0.00 0.00 0.00 38 1029.3
20260905192206 20 49 8.0 16.1 0.00 0.00 0.00 39 1029.3
20260905191916 19 73 8.0 9.7 0.00 0.00 0.00 43 1029.4
20260905191801 20 103 3.2 11.3 0.00 0.00 0.00 41 1029.4
20260905190704 19 75 1.6 9.7 0.00 0.00 0.00 43 1029.4
20260905190204 19 102 6.4 9.7 0.00 0.00 0.00 42 1029.6
20260905185704 19 76 4.8 9.7 0.00 0.00 0.00 44 1029.6
20260905185204 18 73 1.6 9.7 0.00 0.00 0.00 46 1029.6
20260905184704 18 42 6.4 9.7 0.00 0.00 0.00 46 1029.7
20260905184423 18 106 3.2 9.7 0.00 0.00 0.00 47 1029.6
20260905183705 18 104 6.4 9.7 0.00 0.00 0.00 47 1029.8
20260905183203 18 90 1.6 8.0 0.00 0.00 0.00 45 1029.8
20260905182703 18 89 3.2 8.0 0.00 0.00 0.00 47 1029.9
20260905182203 18 55 3.2 6.4 0.00 0.00 0.00 49 1030.0
20260905181703 17 121 3.2 8.0 0.00 0.00 0.00 49 1030.0
20260905181204 17 100 4.8 8.0 0.00 0.00 0.00 49 1030.1
20260905180924 17 118 1.6 6.4 0.00 0.00 0.00 49 1030.1
20260905180203 17 82 1.6 4.8 0.00 0.00 0.00 50 1030.2
20260905175702 17 58 1.6 9.7 0.00 0.00 0.00 52 1030.3
20260905175205 16 87 3.2 9.7 0.00 0.00 0.00 53 1030.4
20260905174703 16 151 4.8 8.0 0.00 0.00 0.00 52 1030.3
20260905174203 17 109 3.2 6.4 0.00 0.00 0.00 51 1030.4
20260905174152 16 83 0.0 0.0 0.00 0.00 0.00 52 1030.6
20260905173202 16 147 0.0 0.0 0.00 0.00 0.00 51 1030.6
20260905172704 15 310 0.0 0.0 0.00 0.00 0.00 55 1030.6
20260905172202 15 18 0.0 0.0 0.00 0.00 0.00 55 1030.7
20260905171707 15 121 0.0 0.0 0.00 0.00 0.00 58 1030.8
20260905171202 14 142 0.0 0.0 0.00 0.00 0.00 57 1030.9
20260905170703 14 121 0.0 0.0 0.00 0.00 0.00 59 1031.0
20260905170202 14 87 0.0 0.0 0.00 0.00 0.00 60 1031.0
20260905165929 14 44 0.0 0.0 0.00 0.00 0.00 59 1031.1
20260905165206 14 309 0.0 0.0 0.00 0.00 0.00 61 1031.1
20260905164702 13 92 0.0 0.0 0.00 0.00 0.00 61 1031.1
20260905164201 13 4 0.0 0.0 0.00 0.00 0.00 61 1031.1
20260905163701 13 337 0.0 0.0 0.00 0.00 0.00 62 1031.2
20260905163425 13 343 0.0 0.0 0.00 0.00 0.00 62 1031.2
20260905162700 13 252 0.0 1.6 0.00 0.00 0.00 65 1031.2
20260905162202 12 251 0.0 1.6 0.00 0.00 0.00 65 1031.4
20260905161700 12 255 0.0 0.0 0.00 0.00 0.00 66 1031.4
20260905161200 12 255 0.0 0.0 0.00 0.00 0.00 68 1031.4
20260905160923 12 255 0.0 0.0 0.00 0.00 0.00 69 1031.5
20260905160200 12 258 0.0 0.0 0.00 0.00 0.00 71 1031.5
20260905155701 11 258 0.0 0.0 0.00 0.00 0.00 71 1031.5
20260905155432 11 258 0.0 1.6 0.00 0.00 0.00 73 1031.6
20260905154701 11 257 0.0 1.6 0.00 0.00 0.00 74 1031.5
20260905154200 11 258 0.0 1.6 0.00 0.00 0.00 72 1031.5
20260905153701 11 250 0.0 1.6 0.00 0.00 0.00 73 1031.5
20260905153419 10 250 0.0 1.6 0.00 0.00 0.00 79 1031.5
20260905152659 9 250 0.0 1.6 0.00 0.00 0.00 79 1031.5
20260905152427 9 250 0.0 0.0 0.00 0.00 0.00 81 1031.5
20260905151659 8 250 0.0 0.0 0.00 0.00 0.00 83 1031.6
20260905151421 8 251 0.0 0.0 0.00 0.00 0.00 83 1031.6
20260905150659 8 247 0.0 1.6 0.00 0.00 0.00 84 1031.6
20260905150429 8 247 0.0 1.6 0.00 0.00 0.00 85 1031.7
20260905145658 8 247 0.0 0.0 0.00 0.00 0.00 90 1031.5
20260905145159 7 247 0.0 0.0 0.00 0.00 0.00 94 1031.6
20260905144659 6 247 0.0 1.6 0.00 0.00 0.00 93 1031.6
20260905144158 5 247 0.0 1.6 0.00 0.00 0.00 93 1031.6
20260905143658 5 247 0.0 0.0 0.00 0.00 0.00 93 1031.5
20260905143158 5 247 0.0 0.0 0.00 0.00 0.00 93 1031.5
20260905142659 5 247 0.0 0.0 0.00 0.00 0.00 93 1031.5
20260905142157 5 247 0.0 0.0 0.00 0.00 0.00 94 1031.5
20260905141701 5 247 0.0 0.0 0.00 0.00 0.00 94 1031.5
20260905141158 5 247 0.0 0.0 0.00 0.00 0.00 94 1031.4
20260905140659 4 247 0.0 0.0 0.00 0.00 0.00 94 1031.5
20260905140202 4 247 0.0 0.0 0.00 0.00 0.00 94 1031.3
20260905135657 4 247 0.0 0.0 0.00 0.00 0.00 93 1031.3
20260905135157 4 247 0.0 0.0 0.00 0.00 0.00 93 1031.4
20260905134657 4 247 0.0 0.0 0.00 0.00 0.00 93 1031.4
20260905134201 4 247 0.0 0.0 0.00 0.00 0.00 93 1031.2
20260905133918 4 247 0.0 0.0 0.00 0.00 0.00 93 1031.2
20260905133157 4 247 0.0 1.6 0.00 0.00 0.00 93 1031.3
20260905132656 4 247 0.0 1.6 0.00 0.00 0.00 93 1031.2
20260905132420 4 247 0.0 1.6 0.00 0.00 0.00 93 1031.2
20260905131656 4 213 0.0 0.0 0.00 0.00 0.00 92 1031.2
20260905131416 5 213 0.0 0.0 0.00 0.00 0.00 93 1031.2
20260905130657 5 213 0.0 0.0 0.00 0.00 0.00 93 1031.1
20260905130156 5 213 0.0 0.0 0.00 0.00 0.00 92 1031.1
20260905125657 5 213 0.0 0.0 0.00 0.00 0.00 92 1031.1
20260905125156 5 213 0.0 0.0 0.00 0.00 0.00 92 1031.0
20260905124926 5 213 0.0 0.0 0.00 0.03 0.00 92 1031.1
20260905124156 5 213 0.0 0.0 0.00 0.03 0.00 92 1031.0
20260905123657 5 213 0.0 0.0 0.00 0.03 0.00 91 1031.1
20260905123422 5 213 0.0 0.0 0.00 0.03 0.00 92 1031.0
20260905122655 5 213 0.0 0.0 0.00 0.03 0.00 92 1031.0
20260905122156 5 213 0.0 0.0 0.00 0.05 0.00 93 1031.0
20260905121655 5 213 0.0 0.0 0.00 0.05 0.00 93 1031.1
20260905121414 5 212 0.0 0.0 0.00 0.08 0.00 92 1031.1
20260905120655 5 213 0.0 0.0 0.00 0.08 0.00 92 1031.1
20260905120156 5 212 0.0 0.0 0.00 0.10 0.00 92 1031.0
20260905115655 5 213 0.0 0.0 0.00 0.15 0.00 92 1031.0
20260905115155 5 213 0.0 0.0 0.00 0.15 0.00 92 1031.0
20260905115135 5 212 0.0 0.0 0.00 0.18 0.00 92 1030.9
20260905114155 5 213 0.0 0.0 0.00 0.20 0.00 92 1030.9
20260905113655 5 212 0.0 0.0 0.00 0.20 0.00 92 1030.9
20260905113414 5 213 0.0 0.0 0.00 0.23 0.00 92 1030.9
20260905112655 5 213 0.0 0.0 0.00 0.23 0.00 92 1030.8
20260905112154 5 213 0.0 0.0 0.00 0.23 0.00 92 1030.8
20260905111655 5 212 0.0 0.0 0.00 0.25 0.00 92 1030.8
20260905111154 5 212 0.0 0.0 0.00 0.25 0.00 92 1030.8
20260905110918 5 213 0.0 0.0 0.00 0.25 0.00 92 1030.8
20260905110421 5 213 0.0 0.0 0.00 0.28 0.00 91 1030.8
20260905105654 5 212 0.0 0.0 0.00 0.30 0.00 91 1030.8
20260905105154 5 212 0.0 0.0 0.00 0.30 0.00 91 1030.8
20260905104653 5 212 0.0 0.0 0.00 0.30 0.00 91 1030.7
20260905104154 5 212 0.0 0.0 0.00 0.30 0.00 91 1030.7
20260905103653 5 212 0.0 0.0 0.00 0.30 0.00 92 1030.8
20260905103154 5 213 0.0 0.0 0.00 0.33 0.00 92 1030.7
20260905102915 5 212 0.0 0.0 0.00 0.33 0.00 91 1030.7
20260905102415 5 213 0.0 0.0 0.00 0.33 0.00 91 1030.7
20260905101652 5 212 0.0 0.0 0.00 0.33 0.00 91 1030.7
20260905101152 5 212 0.0 0.0 0.00 0.33 0.00 91 1030.6
20260905100914 5 212 0.0 0.0 0.00 0.33 0.00 91 1030.4
20260905100152 5 212 0.0 0.0 0.00 0.33 0.00 91 1030.6
20260905095654 5 212 0.0 0.0 0.00 0.33 0.00 90 1030.3
20260905095154 5 212 0.0 0.0 0.00 0.33 0.00 90 1030.3
20260905094653 5 212 0.0 0.0 0.00 0.33 0.00 89 1030.3
20260905094152 5 212 0.0 0.0 0.00 0.33 0.00 89 1030.3
20260905093656 6 212 0.0 0.0 0.00 0.33 0.00 88 1030.3
20260905093151 6 212 0.0 0.0 0.00 0.33 0.00 87 1030.3
20260905092651 6 212 0.0 0.0 0.00 0.33 0.00 88 1030.3
20260905092152 6 212 0.0 0.0 0.00 0.33 0.00 89 1030.1
20260905091650 6 212 0.0 0.0 0.00 0.33 0.00 90 1030.2
20260905091358 6 212 0.0 0.0 0.00 0.33 0.00 89 1030.0
20260905091249 6 212 0.0 0.0 0.00 0.33 0.00 89 1029.9
20260905090152 6 212 0.0 0.0 0.00 0.33 0.00 88 1030.0
20260905085650 6 212 0.0 0.0 0.00 0.33 0.00 86 1029.9
20260905085152 6 212 0.0 0.0 0.00 0.33 0.00 86 1029.9
20260905084651 6 212 0.0 0.0 0.00 0.33 0.00 87 1029.8
20260905084156 6 212 0.0 0.0 0.00 0.33 0.00 86 1029.7
20260905084150 6 212 0.0 0.0 0.00 0.33 0.00 86 1029.9
20260905083411 6 212 0.0 0.0 0.00 0.33 0.00 86 1029.7
20260905082917 6 212 0.0 0.0 0.00 0.33 0.00 86 1029.6
20260905082150 7 212 0.0 0.0 0.00 0.33 0.00 85 1029.6
20260905081655 7 212 0.0 0.0 0.00 0.33 0.00 85 1029.5
20260905081410 7 212 0.0 0.0 0.00 0.33 0.00 84 1029.5
20260905080649 7 212 0.0 0.0 0.00 0.33 0.00 82 1029.5
20260905080626 8 212 0.0 0.0 0.00 0.33 0.00 82 1029.5
20260905075649 8 212 0.0 0.0 0.00 0.33 0.00 81 1029.4
20260905075407 8 212 0.0 1.6 0.00 0.33 0.00 81 1029.4
20260905074649 8 216 0.0 1.6 0.00 0.33 0.00 81 1029.4
20260905074422 8 216 0.0 1.6 0.00 0.33 0.00 81 1029.4
20260905073648 8 203 0.0 1.6 0.00 0.33 0.00 82 1029.4
20260905073205 8 217 0.0 0.0 0.00 0.33 0.00 81 1029.3
20260905073156 8 217 0.0 0.0 0.00 0.33 0.00 81 1029.4
20260905072148 8 217 0.0 3.2 0.00 0.33 0.00 81 1029.3
20260905072134 8 216 3.2 3.2 0.00 0.33 0.00 81 1029.3
20260905071149 8 220 0.0 0.0 0.00 0.33 0.00 81 1029.2
20260905070913 8 244 0.0 0.0 0.00 0.33 0.00 81 1029.1
20260905070147 8 244 0.0 0.0 0.00 0.33 0.00 80 1029.1
20260905065649 8 244 0.0 3.2 0.00 0.33 0.33 79 1029.1
20260905065148 8 244 1.6 3.2 0.00 0.33 0.33 80 1029.1
20260905064652 8 206 0.0 3.2 0.00 0.33 0.33 80 1029.1
20260905064150 8 224 0.0 0.0 0.00 0.33 0.33 79 1029.1
20260905063914 8 224 0.0 0.0 0.00 0.33 0.33 78 1029.1
20260905063148 9 224 0.0 0.0 0.00 0.33 0.33 77 1029.1
20260905062647 10 227 0.0 1.6 0.00 0.33 0.33 76 1028.9
20260905062157 10 212 0.0 1.6 0.00 0.33 0.33 76 1028.9
20260905061647 10 212 0.0 0.0 0.00 0.33 0.33 76 1028.9
20260905061149 10 212 0.0 1.6 0.00 0.33 0.33 76 1028.8
20260905060647 10 212 0.0 1.6 0.00 0.33 0.33 76 1028.8
20260905060148 10 216 0.0 0.0 0.00 0.33 0.33 76 1028.8
20260905055702 10 193 0.0 3.2 0.00 0.33 0.33 75 1028.8
20260905055647 10 193 1.6 3.2 0.00 0.33 0.33 75 1028.8
20260905054645 10 199 0.0 0.0 0.00 0.33 0.33 76 1028.8
20260905054145 10 210 0.0 0.0 0.00 0.33 0.33 76 1028.7
20260905053907 10 217 0.0 4.8 0.00 0.33 0.33 76 1028.8
20260905053146 10 168 1.6 4.8 0.00 0.33 0.33 76 1028.8
20260905052647 10 172 1.6 4.8 0.00 0.33 0.33 76 1028.8
20260905052145 10 257 0.0 1.6 0.00 0.33 0.33 75 1028.8
20260905051645 10 257 0.0 3.2 0.00 0.33 0.33 75 1028.7
20260905051145 10 257 0.0 4.8 0.00 0.33 0.33 74 1028.7
20260905051129 10 223 3.2 4.8 0.00 0.33 0.33 74 1028.7
20260905050146 10 172 3.2 3.2 0.00 0.33 0.33 73 1028.7
20260905050134 11 197 0.0 3.2 0.00 0.33 0.33 73 1028.7
20260905045146 11 223 0.0 4.8 0.00 0.33 0.33 72 1028.7
20260905044646 11 223 3.2 4.8 0.00 0.33 0.33 73 1028.7
20260905044409 11 233 0.0 0.0 0.00 0.33 0.33 72 1028.6
20260905043644 11 171 0.0 0.0 0.00 0.33 0.33 72 1028.6
20260905043144 11 168 0.0 0.0 0.00 0.33 0.33 72 1028.5
20260905042645 11 168 0.0 0.0 0.00 0.33 0.33 71 1028.5
20260905042144 11 200 0.0 0.0 0.00 0.33 0.33 71 1028.5
20260905041644 11 219 0.0 0.0 0.00 0.33 0.33 71 1028.5
20260905041144 11 210 0.0 0.0 0.00 0.33 0.33 69 1028.4
20260905040646 12 227 0.0 0.0 0.00 0.33 0.33 70 1028.3
20260905040409 12 235 0.0 0.0 0.00 0.33 0.33 70 1028.2
20260905035645 12 227 0.0 0.0 0.00 0.33 0.33 69 1028.3
20260905035143 12 226 0.0 0.0 0.00 0.33 0.33 66 1028.3
20260905034644 12 226 0.0 0.0 0.00 0.33 0.33 67 1028.2
20260905034144 12 226 0.0 0.0 0.00 0.33 0.33 67 1028.1
20260905033644 12 226 0.0 0.0 0.00 0.33 0.33 67 1028.1
20260905033144 12 226 0.0 0.0 0.00 0.33 0.33 66 1028.1
20260905032644 12 213 0.0 0.0 0.00 0.33 0.33 66 1028.1
20260905032145 12 192 0.0 0.0 0.00 0.33 0.33 66 1028.1